Theta_e
311 313 315 315 315 313 311 310 310 311 311 312 313 315 318 322 320 320 318 319 320 322 321 320 320 319 319 314 313 312 314 317 320 319 319 317 316 317 315 316 318 318 319 325 332
311 313 316 316 315 313 312 311 311 311 311 313 313 315 322 321 322 321 321 321 321 322 321 319 316 314 314 314 312 313 313 319 318 319 319 316 316 315 316 314 317 324 329 332 332
311 314 317 316 315 314 314 313 313 312 311 311 313 316 323 323 320 321 320 319 321 323 321 320 317 314 314 313 312 315 315 317 317 316 316 315 315 313 315 316 314 326 331 329 327
311 314 317 317 316 315 315 314 314 314 312 310 312 317 322 324 323 321 320 320 321 322 322 319 315 315 315 316 313 315 315 316 316 316 314 315 315 314 314 319 324 327 326 322 319
311 314 318 318 317 316 316 315 315 314 314 311 312 318 322 318 320 320 320 319 321 321 319 317 317 317 318 316 316 316 317 316 315 314 313 313 313 313 319 325 324 321 318 317 315
311 313 317 318 317 316 316 316 316 316 316 313 313 319 321 319 319 317 317 318 319 318 318 319 319 317 317 318 317 317 317 316 313 311 312 315 312 312 314 322 319 317 314 313 312
310 312 316 317 316 315 315 316 316 317 316 316 316 321 317 318 317 316 317 318 318 317 317 318 319 318 318 319 317 318 318 315 311 311 314 310 312 309 316 316 314 312 311 310 310
310 312 314 315 315 315 315 316 316 317 317 316 317 319 318 319 317 316 316 317 317 316 318 318 319 316 317 317 315 316 314 313 312 311 312 311 313 316 313 313 311 310 309 308 307
311 313 314 312 311 314 315 316 316 318 317 317 318 316 316 316 315 316 315 315 316 317 316 318 317 315 315 316 314 311 315 314 312 310 310 311 314 315 312 311 310 308 307 307 306
313 313 312 309 311 313 314 315 318 319 319 318 315 314 313 313 314 315 315 315 315 314 314 314 312 312 310 311 315 315 313 312 312 311 315 314 313 311 310 309 308 306 306 306 306
313 312 309 306 312 313 313 315 311 316 311 313 314 313 313 313 314 315 314 314 314 312 314 311 312 313 314 313 313 311 311 313 312 311 314 312 311 310 309 308 307 306 306 305 306
313 311 308 305 312 311 312 310 312 311 310 311 313 313 313 311 313 312 314 314 315 314 312 312 314 313 310 311 312 311 310 311 311 314 314 312 312 310 309 309 307 305 304 304 303
312 308 305 304 312 310 315 316 316 313 310 315 313 311 310 312 313 312 311 313 313 312 312 314 315 313 311 309 309 311 308 309 312 311 312 311 312 313 312 310 307 305 302 301 300
312 305 304 305 312 312 309 314 314 315 311 313 311 311 311 311 313 310 308 313 311 312 312 313 314 313 309 308 309 310 308 308 312 308 308 307 316 314 313 311 304 302 301 299 300
309 302 309 312 312 310 309 310 316 314 314 313 311 311 310 311 311 310 306 308 309 309 311 311 313 314 310 308 306 308 306 307 309 307 306 305 312 314 310 309 303 302 302 302 301
305 302 307 309 308 307 309 316 316 313 315 311 310 311 312 309 308 306 305 303 305 307 307 309 310 310 311 307 306 305 305 304 303 303 306 307 308 311 308 304 303 303 303 302 302
302 304 308 310 308 306 316 310 313 315 313 310 310 310 310 309 308 306 304 302 303 307 305 308 307 305 305 306 304 303 302 302 306 305 306 308 309 309 302 303 304 304 303 302 301
302 304 305 307 306 313 315 308 316 312 313 309 309 309 310 309 306 306 306 304 303 303 303 307 313 305 305 305 306 305 304 303 303 303 303 304 311 306 303 303 303 303 303 302 301
301 303 305 303 309 316 304 309 312 312 309 308 307 309 309 308 307 306 305 304 304 302 305 304 307 304 306 306 305 305 303 304 304 304 305 303 307 304 304 303 304 303 302 301 299
304 307 307 304 311 309 305 307 313 311 308 308 309 307 308 308 306 307 307 305 305 304 303 305 302 304 306 305 304 305 304 304 302 306 306 303 306 305 305 304 303 302 300 299 297
307 306 309 304 308 303 307 307 311 308 309 309 308 308 308 306 305 307 307 305 304 305 303 305 302 301 302 303 304 303 304 304 303 304 306 306 304 304 304 303 303 300 299 297 296
305 310 306 307 302 302 306 309 309 308 307 307 308 308 307 306 306 308 307 306 304 305 304 302 302 300 303 303 302 303 304 303 305 306 305 305 304 303 303 302 301 298 297 296 296
307 305 303 303 303 302 305 309 309 308 308 307 307 307 307 306 307 308 306 305 305 304 305 301 299 297 299 304 305 304 304 303 302 301 303 304 303 303 302 300 298 296 296 295 294
304 308 299 300 300 304 307 309 308 307 307 306 306 306 306 306 306 307 305 306 304 304 304 299 298 297 298 303 304 306 305 304 302 302 302 302 302 302 301 300 297 296 295 294 294
302 303 301 299 303 304 307 308 308 308 307 306 306 306 305 306 305 308 307 305 304 306 303 298 299 302 303 302 305 305 304 303 301 302 302 302 303 303 300 298 296 296 294 295 296
306 304 300 298 302 306 307 308 307 307 306 307 307 305 305 305 305 306 305 305 305 304 303 301 301 304 304 304 303 303 302 301 301 301 301 303 304 300 299 296 295 294 295 296 296
304 305 303 303 299 304 304 308 308 306 306 306 306 306 306 306 304 303 303 303 304 303 302 302 303 303 301 302 300 299 301 301 302 304 304 305 303 298 297 295 294 293 295 296 295
Wind_Speed
3 3 5 7 9 11 12 14 15 16 17 18 18 16 13 12 16 18 11 11 15 22 20 23 27 18 9 5 7 3 5 2 3 5 6 6 7 6 5 5 8 7 8 8 16
4 3 4 7 9 11 13 14 16 17 17 17 17 17 8 9 15 17 14 16 18 20 21 18 11 11 5 6 5 6 4 1 1 3 5 6 4 7 6 9 7 8 16 22 34
4 3 4 6 9 11 13 15 16 17 17 16 16 15 6 5 6 4 14 17 16 16 16 12 8 4 6 4 6 1 3 1 3 5 3 3 5 6 5 7 7 8 12 20 31
5 4 5 6 9 11 13 14 15 17 17 16 15 12 6 3 3 6 14 15 17 11 17 13 8 5 5 4 4 5 3 2 5 5 4 4 3 7 9 5 10 14 16 24 23
5 4 5 7 9 10 12 14 15 16 16 15 14 9 3 6 2 10 15 14 12 15 15 5 7 3 4 1 3 4 4 6 6 5 8 7 15 9 15 12 16 21 23 20 19
6 4 4 6 9 10 12 13 15 16 15 13 12 5 4 5 5 11 15 12 14 15 7 6 2 2 3 2 3 3 4 4 9 9 6 7 14 8 9 13 20 21 18 16 16
6 5 5 7 9 10 12 13 15 14 11 10 9 6 7 3 4 16 14 10 8 13 2 2 2 4 2 3 3 3 5 4 10 13 5 3 11 14 6 17 19 17 13 13 15
6 5 6 7 10 11 12 13 13 11 9 5 6 3 2 4 8 14 14 9 11 9 2 1 3 4 3 1 6 5 5 4 5 13 7 6 4 14 7 20 14 11 10 10 9
6 5 6 8 10 11 11 11 9 6 4 3 2 5 1 4 11 12 12 9 16 9 6 5 5 4 6 4 5 7 2 4 6 13 4 9 4 15 10 17 12 9 7 8 7
6 5 6 7 9 11 9 7 2 2 2 3 5 5 6 5 7 14 17 10 3 5 5 8 6 4 5 5 1 1 4 3 6 8 17 18 13 10 8 13 9 8 7 6 6
6 4 6 6 7 12 7 1 5 4 11 3 0 3 2 9 4 13 17 6 5 8 4 5 7 3 1 2 4 6 5 2 3 6 12 9 13 7 6 11 9 7 7 7 7
7 4 5 6 6 12 4 7 2 3 6 2 2 2 1 4 5 10 14 6 6 4 3 7 4 3 6 6 6 5 5 4 4 13 13 8 10 7 6 4 5 6 7 8 7
7 4 4 4 3 5 12 6 3 4 6 4 2 3 3 5 3 8 6 2 5 6 5 5 1 3 3 6 7 2 7 1 3 6 9 8 4 2 3 2 4 6 5 6 7
6 4 4 2 1 2 4 4 3 3 5 6 4 3 2 1 4 4 10 2 6 3 3 5 4 4 5 5 1 1 2 3 3 5 4 2 3 2 3 5 8 12 13 11 15
5 2 3 1 7 3 2 3 3 1 4 0 2 1 4 6 2 7 10 7 3 4 4 1 3 4 6 2 2 3 2 1 3 2 3 3 4 3 3 6 12 14 15 16 16
5 2 1 1 3 4 3 4 2 6 2 1 2 3 4 6 5 6 8 9 1 4 5 1 3 3 2 3 2 3 4 6 4 3 2 2 4 3 2 5 7 11 12 13 15
5 2 1 1 2 2 4 3 5 6 0 2 2 3 3 5 5 6 5 7 4 3 6 6 3 6 4 3 5 10 6 3 3 3 4 1 3 3 7 8 8 8 9 11 13
7 5 6 5 2 3 2 5 4 3 3 2 4 3 3 3 4 6 3 4 6 5 4 3 3 5 7 3 1 4 4 4 3 2 4 3 3 3 5 6 5 5 6 8 11
11 7 3 5 4 2 5 5 7 5 4 6 4 3 2 2 4 5 4 2 2 4 3 2 2 4 3 3 2 1 4 3 5 2 1 2 4 3 5 8 6 8 9 12 16
8 6 2 5 4 3 5 5 3 3 4 3 4 2 3 2 2 3 1 1 1 4 1 2 4 2 5 2 4 3 3 3 3 1 4 4 3 3 5 8 9 11 13 15 16
4 3 3 3 3 4 4 4 4 2 3 4 3 3 3 4 3 2 2 1 2 2 4 2 3 5 2 5 0 5 3 5 4 3 3 3 4 3 2 4 7 9 12 12 12
4 3 6 4 4 2 4 5 2 3 4 4 4 3 4 3 3 3 4 1 3 1 2 0 4 1 0 5 1 2 3 3 4 2 0 2 4 5 2 3 5 8 10 10 10
3 1 6 5 4 1 2 2 2 3 3 3 3 2 2 4 3 2 3 2 2 2 5 4 1 2 5 4 2 6 2 4 5 2 5 4 4 4 1 4 6 10 11 12 14
3 2 4 4 1 5 5 2 4 3 4 4 4 4 4 3 5 5 3 1 2 2 5 4 2 4 5 2 1 2 2 1 3 3 2 5 3 3 9 12 12 11 11 14 15
3 1 2 3 2 3 2 5 5 4 3 3 3 4 6 4 3 3 2 2 3 3 3 4 2 2 4 4 2 4 7 6 8 5 6 3 3 0 5 7 8 8 13 15 18
4 4 3 2 3 6 1 5 6 3 4 3 5 4 4 6 7 8 6 4 5 1 2 2 1 3 4 3 3 5 11 9 5 4 7 4 3 3 3 3 7 9 13 16 17
3 3 4 3 2 4 5 5 7 8 2 3 7 5 4 4 3 1 3 4 6 8 4 4 5 3 4 4 7 7 4 5 4 1 4 4 2 2 4 8 7 8 13 12 12
Wind_Direction
249 304 336 351 358 3 4 6 7 6 5 3 4 6 20 76 70 51 36 2 356 358 4 6 20 19 51 53 38 91 59 37 22 12 292 310 4 315 338 358 43 37 34 355 44
250 293 330 345 355 357 0 3 5 4 3 2 2 2 28 109 64 49 16 5 0 4 11 17 358 2 48 19 22 68 87 73 324 287 285 301 337 345 18 24 23 61 39 46 53
251 281 318 340 349 353 357 1 3 2 0 360 359 2 37 131 58 340 4 2 5 8 13 20 21 45 56 18 356 17 104 323 272 283 286 263 9 359 21 39 7 75 51 45 51
244 281 316 337 345 348 352 355 357 359 355 356 357 6 47 42 94 344 353 10 15 19 27 29 19 40 59 38 320 91 66 168 282 320 310 315 48 44 43 41 76 71 65 56 51
238 270 307 328 337 342 345 348 351 352 349 352 358 7 44 46 16 352 355 2 12 25 33 38 37 45 57 340 356 55 355 341 314 0 27 75 86 90 55 59 69 66 58 57 57
243 262 297 318 326 334 338 341 344 345 345 350 359 32 67 75 8 0 350 8 15 12 14 40 49 60 90 45 68 330 27 0 350 1 63 39 71 63 39 73 65 62 60 63 66
251 274 293 310 319 324 329 332 337 340 342 346 5 56 62 169 26 9 358 355 357 347 359 40 88 68 120 22 334 2 69 25 10 344 17 330 46 37 51 76 71 67 68 60 52
247 277 298 311 319 319 323 327 332 337 335 348 24 70 104 14 13 4 351 343 333 343 310 321 111 100 50 15 19 54 48 42 15 4 343 21 53 359 65 87 76 72 61 54 38
250 276 299 316 320 314 317 321 330 346 15 34 54 88 79 7 8 10 353 325 327 2 51 100 75 77 21 67 24 9 51 22 1 17 15 48 32 31 61 82 78 62 53 52 34
248 280 303 318 329 320 314 309 332 354 11 28 55 53 8 313 330 351 1 350 351 342 28 39 48 60 29 57 154 356 55 3 26 14 67 76 74 48 36 70 60 46 40 34 31
237 266 299 312 335 337 328 169 32 0 40 89 176 124 295 332 6 355 349 352 22 52 46 11 73 91 46 82 92 100 96 81 35 179 65 64 76 50 38 60 52 41 36 23 13
232 250 288 309 324 346 33 78 131 148 88 39 279 318 300 354 26 335 2 60 47 46 17 40 78 166 87 63 86 67 105 350 100 101 89 88 76 67 37 48 56 37 19 9 358
233 254 284 306 320 27 80 98 102 135 87 0 8 44 332 25 25 326 25 36 65 40 26 108 133 102 99 41 60 44 110 273 128 68 115 112 58 44 85 87 20 25 359 9 358
230 268 307 269 167 80 63 90 102 141 81 319 355 353 4 7 52 353 5 78 34 56 44 73 3 74 61 78 50 102 124 176 212 141 204 139 225 261 140 35 27 17 13 359 1
220 262 357 188 137 88 115 136 131 84 67 270 355 323 13 89 261 347 24 28 61 3 63 225 26 47 57 47 334 219 36 294 174 120 101 3 96 260 67 40 31 18 15 10 2
203 209 218 118 97 102 126 137 110 49 177 58 38 24 51 14 15 329 23 35 52 74 32 16 308 57 335 86 53 307 76 48 50 92 53 314 113 346 36 51 35 20 15 13 8
177 148 225 119 96 80 136 83 51 110 317 158 101 66 74 14 33 37 43 23 50 46 11 353 7 330 35 9 0 35 42 354 6 11 219 191 45 218 72 64 59 20 4 358 358
159 132 88 78 44 136 142 56 102 140 185 148 112 84 84 22 23 23 55 33 18 46 64 60 332 8 336 79 280 39 109 135 271 249 274 300 201 158 100 72 49 19 347 339 347
150 130 93 14 358 135 77 69 181 191 164 129 69 91 42 36 105 78 49 78 23 16 95 36 287 325 55 333 76 113 57 175 106 1 15 233 77 181 52 34 13 351 348 350 353
148 111 48 357 347 65 78 170 126 211 119 86 119 136 156 160 83 76 136 333 108 33 160 148 331 357 295 356 31 83 149 53 16 254 268 280 231 212 12 357 356 355 352 355 349
141 95 2 355 34 52 148 187 145 97 104 90 136 121 124 143 127 134 152 325 26 58 69 101 103 291 20 20 334 355 35 54 113 132 208 290 263 144 100 341 340 345 348 345 340
123 111 356 60 55 330 141 164 156 133 85 83 95 107 145 138 104 131 169 39 335 187 96 52 130 289 326 288 25 90 118 105 120 228 124 152 268 125 123 333 347 344 343 344 354
98 122 23 42 138 327 298 91 103 124 113 104 106 96 68 124 119 105 122 352 8 86 158 183 50 18 339 5 26 72 32 90 95 88 209 148 268 187 353 314 359 356 347 350 357
115 95 6 45 51 143 139 147 112 25 92 93 120 91 97 110 33 153 139 4 7 94 74 82 120 174 203 202 156 242 202 157 150 157 209 234 307 242 344 356 355 352 353 359 0
34 201 190 180 244 175 121 142 132 133 90 109 70 146 149 145 102 142 133 123 28 132 69 106 218 196 251 233 228 236 244 221 203 199 188 203 271 204 318 343 338 346 2 1 358
127 129 32 82 94 114 33 196 145 125 128 175 135 152 149 159 184 193 141 186 194 184 111 30 234 30 304 55 350 259 249 228 201 223 251 211 252 144 270 335 7 8 7 3 6
118 102 103 324 87 104 198 175 188 127 44 69 149 118 131 185 147 85 132 140 161 151 149 124 131 101 260 358 315 292 257 206 156 162 154 210 124 17 321 4 2 14 7 17 13